This is the latest recevied weather packets stored in our database for station/object KD2ZLA. If no packets are shown the sender has not sent any weather packets the latest 10 day(s).
| Time | Temp. | Humidity | Pressure | Rain* | Wind** | Luminosity | Snow |
|---|---|---|---|---|---|---|---|
| 1777935647 | 20° C | 39% | 1002.6 hPa | 0 mm | - | 62 W/m² | - |
| 1777935343 | 20° C | 40% | 1002.5 hPa | 0 mm | - | 68 W/m² | - |
| 1777935040 | 20° C | 40% | 1002.4 hPa | 0 mm | - | 68 W/m² | - |
| 1777934737 | 20° C | 40% | 1002.5 hPa | 0 mm | - | 69 W/m² | - |
| 1777934434 | 20° C | 39% | 1002.4 hPa | 0 mm | - | 76 W/m² | - |
| 1777934131 | 20° C | 39% | 1002.5 hPa | 0 mm | - | 83 W/m² | - |
| 1777933827 | 20.56° C | 40% | 1002.6 hPa | 0 mm | - | 93 W/m² | - |
| 1777933524 | 20.56° C | 39% | 1002.5 hPa | 0 mm | - | 107 W/m² | - |
| 1777933221 | 20.56° C | 40% | 1002.5 hPa | 0 mm | - | 139 W/m² | - |
| 1777932918 | 20.56° C | 39% | 1002.5 hPa | 0 mm | - | 162 W/m² | - |
| 1777932615 | 21.11° C | 39% | 1002.6 hPa | 0 mm | - | 142 W/m² | - |
| 1777932312 | 21.11° C | 39% | 1002.5 hPa | 0 mm | - | 165 W/m² | - |
| 1777932009 | 20.56° C | 39% | 1002.3 hPa | 0 mm | - | 216 W/m² | - |
| 1777931705 | 20.56° C | 39% | 1002.6 hPa | 0 mm | - | 221 W/m² | - |
| 1777931403 | 20.56° C | 38% | 1002.7 hPa | 0 mm | - | 198 W/m² | - |
| 1777931098 | 20.56° C | 39% | 1002.6 hPa | 0 mm | - | 215 W/m² | - |
| 1777930795 | 20.56° C | 40% | 1002.4 hPa | 0 mm | - | 203 W/m² | - |
| 1777930491 | 20.56° C | 39% | 1002.5 hPa | 0 mm | - | 173 W/m² | - |
| 1777930189 | 20.56° C | 38% | 1002.6 hPa | 0 mm | - | 169 W/m² | - |
| 1777929884 | 20.56° C | 40% | 1002.5 hPa | 0 mm | - | 257 W/m² | - |
| 1777929582 | 21.11° C | 39% | 1002.4 hPa | 0 mm | - | 316 W/m² | - |
| 1777929278 | 21.11° C | 39% | 1002.5 hPa | 0 mm | - | 308 W/m² | - |
| 1777928976 | 20.56° C | 40% | 1002.4 hPa | 0 mm | - | 343 W/m² | - |
| 1777928673 | 20.56° C | 39% | 1002.8 hPa | 0 mm | - | 402 W/m² | - |
| 1777928369 | 20.56° C | 40% | 1002.7 hPa | 0 mm | - | 374 W/m² | - |
* Rain latest hour (hover to see other rain measurements)
** Current wind speed in m/s (hover to see current wind gust speed)